Starlink 3362

operational
NORAD ID: 51108 Int'l Des: 2022-005 Owner: SPXS Country: US Constellation: starlink
LEOCIRCULAR

关于 Starlink 3362

正在加载描述...

实时位置

正在加载3D地球...

即将过境

高度历史

Altitude vs Time

uPlot chart will show altitude changes over time

两行轨道根数

1 51108U 22005E 25257.57774020 -.00000594 00000-0 -19272-4 0 9992
2 51108 53.2192 359.7190 0001221 81.5559 278.5572 15.08835243202292
Epoch: Sep 14, 2025 • Age: 21 hours

当前状态

高度 544.8 km
速度 7.60 km/s
星下点 49.68°N, 45.23°W
发射日期 Jan 19, 2022
运行时间 3.6 years
类型 internet

技术详情

分类 Payload
质量 297.00 kg
干质量 275.00 kg
总质量 297.00 kg
长度 0.20 m
直径 2.80 m
跨度 9.00 m
形状 Box + pan
制造商 SPXS
平台类型 Starlink
阶段状态 In Orbit
所有者/国家 SPXS/US

大型星座

Loading constellations...